Location: Fort Worth, Tx
(32.7431°N, 97.3695°W)
Time: 13:47:46
(UTC-05:00)

deb Explorer IX - All Passes

Search period start: 22 February 2024 00:00
Search period end: 03 March 2024 00:00
Orbit: 517 x 916 km, 38.7° (Epoch: 20 February)

Date Brightness Start Highest point End Pass type
(mag) Time Alt. Az. Time Alt. Az. Time Alt. Az.
22 Feb - 11:06:50 10° SSW 11:12:20 33° SE 11:17:51 10° E daylight
22 Feb - 12:50:38 10° WSW 12:56:58 85° NNW 13:03:04 10° ENE daylight
22 Feb - 14:36:14 10° W 14:42:14 49° N 14:47:49 10° ENE daylight
22 Feb - 16:21:50 10° WNW 16:27:41 54° NNE 16:32:56 10° E daylight
22 Feb - 18:07:00 10° WNW 18:12:32 64° SSW 18:17:26 10° SE daylight
22 Feb - 19:53:51 10° WSW 19:56:23 14° SW 19:58:47 10° SSW visible
23 Feb - 10:11:52 10° S 10:16:30 22° SE 10:21:12 10° E daylight
23 Feb - 11:54:37 10° WSW 12:00:52 75° SSE 12:07:05 10° ENE daylight
23 Feb - 13:39:51 10° W 13:46:00 54° NNW 13:51:52 10° ENE daylight
23 Feb - 15:25:33 10° WNW 15:31:29 49° N 15:36:56 10° E daylight
23 Feb - 17:10:45 10° WNW 17:16:38 89° SSW 17:21:51 10° ESE daylight
23 Feb - 18:56:33 10° W 19:00:49 24° SW 19:04:43 10° SSE daylight
24 Feb - 09:17:46 10° SSE 09:20:44 14° SE 09:23:46 10° ESE daylight
24 Feb - 10:58:50 10° SW 11:04:50 54° SSE 11:10:56 10° ENE daylight
24 Feb - 12:43:31 10° W 12:49:46 64° NNW 12:55:52 10° ENE daylight
24 Feb - 14:29:13 10° WNW 14:35:14 47° N 14:40:53 10° ENE daylight
24 Feb - 16:14:32 10° WNW 16:20:35 71° NNE 16:26:02 10° ESE daylight
24 Feb - 17:59:54 10° WNW 18:05:07 38° SW 18:09:49 10° SSE daylight
25 Feb - 10:03:20 10° SSW 10:08:52 38° SE 10:14:36 10° E daylight
25 Feb - 11:47:18 10° WSW 11:53:33 78° NNW 11:59:49 10° ENE daylight
25 Feb - 13:32:51 10° WNW 13:38:56 49° N 13:44:47 10° ENE daylight
25 Feb - 15:18:18 10° WNW 15:24:25 59° NNE 15:30:03 10° E daylight
25 Feb - 17:03:28 10° WNW 17:09:17 58° SSW 17:14:30 10° SE daylight
25 Feb - 18:50:48 10° WSW 18:53:07 13° SW 18:55:20 10° SSW daylight
26 Feb - 09:08:14 10° SSW 09:12:59 25° SE 09:17:57 10° E daylight
26 Feb - 10:51:14 10° WSW 10:57:22 83° SSE 11:03:41 10° ENE daylight
26 Feb - 12:36:28 10° W 12:42:36 52° N 12:48:38 10° ENE daylight
26 Feb - 14:22:01 10° WNW 14:28:08 52° N 14:33:55 10° E daylight
26 Feb - 16:07:10 10° WNW 16:13:17 81° SSW 16:18:51 10° ESE daylight
26 Feb - 17:53:08 10° W 17:57:28 22° SW 18:01:28 10° S daylight
27 Feb - 08:13:50 10° S 08:17:11 16° SE 08:20:41 10° ESE daylight
27 Feb - 09:55:24 10° SW 10:01:15 61° SSE 10:07:27 10° ENE daylight
27 Feb - 11:40:09 10° W 11:46:15 60° NNW 11:52:28 10° ENE daylight
27 Feb - 13:25:42 10° WNW 13:31:48 49° N 13:37:42 10° ENE daylight
27 Feb - 15:10:54 10° WNW 15:17:09 78° NNE 15:22:57 10° ESE daylight
27 Feb - 16:56:19 10° W 17:01:41 35° SW 17:06:35 10° SSE daylight
28 Feb - 08:59:50 10° SW 09:05:14 42° SE 09:11:03 10° ENE daylight
28 Feb - 10:43:55 10° WSW 10:49:58 72° NNW 10:56:16 10° ENE daylight
28 Feb - 12:29:21 10° WNW 12:35:24 48° N 12:41:25 10° ENE daylight
28 Feb - 14:14:38 10° WNW 14:20:54 64° NNE 14:26:50 10° E daylight
28 Feb - 15:59:47 10° WNW 16:05:45 52° SSW 16:11:14 10° SE daylight
28 Feb - 17:47:41 10° WSW 17:49:36 12° SW 17:51:28 10° SSW daylight
29 Feb - 08:04:38 10° SSW 08:09:19 28° SE 08:14:23 10° E daylight
29 Feb - 09:47:50 10° WSW 09:53:43 90° N 10:00:00 10° ENE daylight
29 Feb - 11:33:01 10° W 11:38:59 51° N 11:45:06 10° ENE daylight
29 Feb - 13:18:22 10° WNW 13:24:33 55° N 13:30:34 10° E daylight
29 Feb - 15:03:24 10° WNW 15:09:40 73° SSW 15:15:31 10° ESE daylight
29 Feb - 16:49:34 10° W 16:53:50 20° SW 16:57:52 10° S daylight
01 Mar - 07:10:02 10° S 07:13:30 17° SE 07:17:11 10° E visible
01 Mar - 08:51:57 10° SW 08:57:33 68° SSE 09:03:41 10° ENE daylight
01 Mar - 10:36:42 10° W 10:42:35 56° NNW 10:48:46 10° ENE daylight
01 Mar - 12:22:05 10° WNW 12:28:07 50° N 12:34:12 10° E daylight
01 Mar - 14:07:07 10° WNW 14:13:27 86° NNE 14:19:31 10° ESE daylight
01 Mar - 15:52:35 10° W 15:57:57 31° SW 16:03:01 10° SSE daylight
02 Mar - 07:56:19 10° SW 08:01:30 47° SSE 08:07:12 10° ENE daylight
02 Mar - 09:40:29 10° W 09:46:13 66° NNW 09:52:26 10° ENE daylight
02 Mar - 11:25:47 10° WNW 11:31:40 48° N 11:37:45 10° ENE daylight
02 Mar - 13:10:52 10° WNW 13:17:08 69° NNE 13:23:18 10° E daylight
02 Mar - 14:55:58 10° WNW 15:01:56 47° SSW 15:07:37 10° SE daylight
02 Mar - 16:44:50 10° SW 16:45:49 10° SW 16:46:49 10° SW daylight
